Location: Kalikowice
(53.5833°N, 14.6167°E)
Time: 00:22:58
(UTC+00:00)

Daily predictions for brighter satellites

Satellite Brightness Start Highest point End
(mag) Time Altitude Azimuth Time Altitude Azimuth Time Altitude Azimuth
Cosmos 2344 4.5 00:15:41 36° NW 00:17:55 44° N 00:26:30 10° ENE
Resurs 1-4 Rocket 3.9 00:19:32 10° NNE 00:22:10 27° NE 00:22:10 27° NE
CZ-2D R/B 3.6 00:34:39 10° NNE 00:37:41 33° NE 00:37:41 33° NE
Lacrosse 4 Rocket 4.1 00:54:25 19° NE 00:54:25 19° NE 00:56:37 10° ENE
ADEOS II 3.3 00:57:55 10° NNE 01:01:33 40° NE 01:01:33 40° NE
Cosmos 1934 Rocket 4.5 01:04:12 55° E 01:04:12 55° E 01:09:59 10° NNE
MSX 4.1 01:22:19 10° NNE 01:27:45 64° E 01:27:45 64° E
Cosmos 2322 Rocket 4.3 01:23:47 10° NNW 01:28:25 25° NNE 01:33:02 10° E
BREEZE-M R/B 4.4 01:30:39 54° SE 01:30:39 54° SE 01:39:14 10° E
Meteor 2-11 Rocket 4.5 01:31:23 74° NNE 01:31:23 74° NNE 01:36:57 10° NNE
ATLAS CENTAUR R/B 3.2 01:32:08 31° E 01:32:08 31° E 01:35:30 10° ENE
Cosmos 1980 Rocket 3.4 01:29:39 10° NNW 01:41:01 - SE 01:32:42 33° NNW
SL-16 R/B 4.4 01:39:24 14° NW 01:41:11 15° NNW 01:44:28 10° NNE
ATLAS 5 CENTAUR R/B 3.5 01:41:58 25° N 01:42:20 25° N 01:46:32 10° NE
Meteor 2-6 Rocket 4.4 01:44:57 65° ESE 01:45:01 65° E 01:50:35 10° NNE
SL-16 R/B 3.9 01:51:00 24° NW 01:51:00 24° NW 01:53:40 10° NNW
Cosmos 2056 Rocket 3.8 01:55:00 56° ESE 01:55:04 57° ESE 02:00:05 10° NNE
Cosmos 1420 Rocket 4.5 01:58:10 51° SE 01:58:39 53° ESE 02:03:42 10° NNE
Cosmos 2278 4.0 01:53:38 10° NNW 01:59:18 64° NE 02:04:54 10° SE
SL-16 R/B 3.5 01:54:15 10° NNW 01:59:36 40° NE 02:04:55 10° ESE
IRS-1D 3.7 01:56:46 10° NNE 02:02:06 70° ESE 02:02:35 65° SE
ALOS 3.4 01:59:26 10° NNE 02:03:52 41° E 02:05:09 33° SE
Cosmos 1346 Rocket 3.9 02:04:55 43° ENE 02:04:55 43° ENE 02:08:03 10° NNE
Resurs 1-4 Rocket 3.2 01:59:34 10° N 02:03:14 33° NW 02:03:14 33° NW
Cosmos 1470 Rocket 4.1 02:01:55 10° N 02:06:12 55° ENE 02:06:29 54° E
IDEFIX/ARIANE 42P 3.0 02:01:15 10° N 02:05:39 51° NW 02:05:39 51° NW
FENGYUN 3A 4.2 02:02:48 10° NNE 02:08:07 56° E 02:10:02 37° SSE
USA 305 3.8 02:09:29 43° E 02:09:29 43° E 02:12:23 10° ENE
Cosmos 1536 4.4 02:04:30 10° N 02:06:38 30° N 02:06:38 30° N
Cosmos 1833 Rocket 2.5 02:13:00 76° SW 02:13:28 86° WNW 02:19:11 10° NNE
Cosmos 1741 Rocket 4.4 02:09:17 10° NNW 02:14:30 63° ENE 02:19:40 10° SE
Cosmos 2219 Rocket 4.5 02:15:22 10° NNW 02:19:42 22° NNE 02:23:59 10° E
CZ-2D R/B 3.3 02:15:07 10° N 02:18:59 29° NW 02:18:59 29° NW
CENTAUR R/B 3.5 02:27:14 22° S 02:30:38 41° ESE 02:37:14 10° NE
Meteor 1-27 Rocket 4.1 02:28:05 24° S 02:31:45 69° E 02:37:39 10° NNE
ARIANE 5 R/B 3.9 02:27:08 10° NNE 02:31:47 36° E 02:36:22 10° SSE
Lacrosse 4 Rocket 1.7 02:30:46 33° NNW 02:32:38 72° NE 02:37:03 10° SE
BREEZE-M DEB (TANK) 3.7 02:34:33 24° SE 02:34:33 24° SE 02:36:33 10° E
Cosmos 2344 4.5 02:26:14 10° NW 02:34:07 58° NNE 02:44:32 10° ESE
CZ-2C R/B 3.0 02:29:52 10° SSE 02:35:05 65° ENE 02:40:27 10° N
Intercosmos 24 Rocket 4.5 02:30:18 10° NNW 02:35:38 82° W 02:36:09 68° SSW
CZ-2C R/B 3.3 02:33:48 10° NNE 02:37:42 15° SSE 02:38:33 10° SSE
Cosmos 2333 Rocket 4.0 02:31:06 10° NNW 02:36:06 30° NE 02:41:04 10° E
Cosmos 2100 Rocket 4.3 02:30:37 12° S 02:36:17 66° E 02:42:25 10° NNE
Helios 1B rocket 3.5 02:32:47 10° NNE 02:36:42 43° E 02:39:02 21° SSE
Cosmos 1153 Rocket 4.4 02:34:05 33° SSW 02:37:05 85° W 02:43:24 10° N
Meteor 1-10 Rocket 4.1 02:39:08 47° SW 02:40:46 73° WNW 02:46:29 10° N
Cosmos 2082 Rocket 2.3 02:38:49 34° S 02:41:16 70° ESE 02:46:53 10° NE
ADEOS II 3.0 02:37:58 10° N 02:42:28 32° WNW 02:42:28 32° WNW
Cosmos 2360 Rocket 3.4 02:38:24 10° NNW 02:43:44 41° NE 02:49:01 10° ESE
Cosmos 1452 Rocket 4.2 02:43:49 19° S 02:47:30 54° ESE 02:52:39 10° NNE
Cosmos 968 Rocket 4.4 02:42:49 10° NNW 02:47:51 48° NE 02:52:49 10° SE
CZ-2C R/B 2.5 02:43:20 10° NNE 02:48:21 77° ESE 02:51:08 26° S
Okean 1 4.1 02:47:37 17° SSE 02:50:29 51° E 02:54:25 10° NNE
Cosmos 1624 Rocket 4.1 02:50:31 47° WSW 02:51:47 60° WNW 02:57:06 10° NNE
USA 307 2.6 02:51:30 70° WSW 02:51:58 86° SSE 02:56:06 10° E
Cosmos 2346 Rocket 4.3 02:48:14 10° NNW 02:54:17 71° W 03:00:21 10° S
Cosmos 1441 Rocket 3.1 02:55:51 65° WNW 02:55:51 65° WNW 02:59:34 10° N
ERBS 3.0 02:57:08 39° NNE 02:57:08 39° NNE 02:59:32 10° ENE
USA 306 2.7 03:00:25 57° W 03:01:13 88° N 03:05:21 10° E
Cosmos 1459 Rocket 4.0 02:56:18 10° S 03:02:40 89° ESE 03:09:05 10° N
BREEZE-M DEB (TANK) 3.9 03:04:00 20° S 03:04:00 20° S 03:07:00 10° SE
COSMOS 2406 3.2 03:01:52 34° SW 03:04:21 71° NW 03:10:04 10° NNE
NOSS 3-2 (A) 3.7 03:01:34 22° SSW 03:05:12 61° SE 03:11:40 10° NE
EO 1 Del DPAF 3.7 03:02:40 10° N 03:05:06 36° NW 03:05:06 36° NW
Cosmos 1151 Rocket 3.9 03:06:28 31° WNW 03:06:28 31° WNW 03:10:01 10° N
Meteor 2-13 Rocket 4.4 03:00:49 10° NNW 03:06:52 60° W 03:12:54 10° S
Cosmos 1605 Rocket 4.5 03:06:06 32° W 03:07:44 38° WNW 03:13:25 10° N
Cosmos 1371 Rocket 4.4 03:06:18 36° W 03:07:46 44° NW 03:12:46 10° NNE
ATLAS CENTAUR R/B 1.9 03:08:06 38° W 03:09:42 58° NW 03:14:28 10° NE
Cosmos 1933 Rocket 3.5 03:06:31 10° NNW 03:10:54 61° W 03:15:14 10° S
IKONOS-2 4.5 03:07:49 10° SSE 03:12:04 87° ENE 03:16:21 10° NNW
CZ-2D R/B 4.0 03:08:30 10° NNE 03:12:27 56° ESE 03:16:24 10° S
Cosmos 1328 Rocket 3.9 03:12:11 38° W 03:12:59 43° WNW 03:17:14 10° N
OPS 6432 4.3 03:13:22 53° SSW 03:13:22 53° SSW 03:16:16 10° SSE
Cosmos 2322 Rocket 2.3 03:07:39 10° NNW 03:13:23 79° ENE 03:19:04 10° SE
IRS-1C 4.1 03:08:03 10° NNE 03:13:27 85° ESE 03:18:48 10° SSW
DELTA 2 DEB (DPAF) 4.0 03:10:33 10° S 03:14:57 74° WSW 03:19:23 10° NNW
Cosmos 2237 4.2 03:09:17 10° NNW 03:15:01 85° ENE 03:20:44 10° SSE
Meteor 1-11 Rocket 4.4 03:10:24 10° NNW 03:15:42 34° W 03:18:13 24° SW
Cosmos 1980 Rocket 4.2 03:23:06 11° SSW 03:23:06 11° SSW 03:23:17 10° SSW
Cosmos 1975 2.9 03:15:01 10° N 03:19:02 77° ENE 03:22:59 10° SSE
COSMOS 2455 3.0 03:15:16 10° NW 03:21:20 74° NE 03:27:22 10° SE
SL-08 R/B 3.2 03:16:38 10° SSE 03:21:21 77° WSW 03:26:11 10° NNW
Tsikada Rocket 4.0 03:17:48 10° N 03:24:10 89° E 03:30:24 10° S
PAYLOAD A 3.9 03:19:48 10° N 03:24:33 59° WNW 03:28:15 17° SW
Cosmos 1850 Rocket 4.4 03:19:46 10° NW 03:24:46 41° WSW 03:29:45 10° S
Cosmos 1242 Rocket 2.9 03:21:23 10° N 03:24:48 60° ENE 03:28:10 10° SSE
BREEZE M DEB (TANK) 4.4 03:16:14 17° SW 03:24:55 45° SSE 03:28:52 10° E
USA 308 2.7 03:25:30 32° W 03:27:19 85° N 03:31:27 10° E
ATLAS 5 CENTAUR R/B 3.3 03:23:36 10° NW 03:27:59 37° NNE 03:33:16 10° E
Meteor 2-9 Rocket 4.3 03:23:06 10° NNW 03:28:39 52° W 03:34:02 10° S
Cosmos 44 Rocket 3.3 03:26:24 28° WSW 03:28:46 63° NW 03:33:28 10° NE
CBERS-1 4.5 03:26:15 10° N 03:31:02 41° WNW 03:33:56 22° WSW
Cosmos 1802 Rocket 4.0 03:25:47 10° SSW 03:32:07 74° WNW 03:38:25 10° N
Cosmos 1725 Rocket 4.0 03:25:57 10° S 03:32:17 90° W 03:38:40 10° N
Cosmos 1378 2.9 03:30:12 15° SSW 03:33:05 68° WNW 03:36:45 10° N
SKYMED 2 4.5 03:32:41 10° SE 03:36:54 52° ENE 03:41:09 10° N
Cosmos 2056 Rocket 4.4 03:35:20 22° W 03:37:30 31° NW 03:42:04 10° NNE
Meteor 1-19 Rocket 4.1 03:34:16 10° SSW 03:39:39 68° WNW 03:45:07 10° N
Cosmos 2173 Rocket 4.1 03:33:54 10° SSW 03:39:50 53° WNW 03:45:49 10° N
Cosmos 1346 Rocket 4.2 03:40:21 20° WNW 03:40:45 21° WNW 03:43:47 10° NNW
Cosmos 1515 Rocket 4.0 03:37:57 18° SW 03:40:56 42° WNW 03:45:13 10° N
ALOS 3.0 03:37:00 10° N 03:41:10 33° WNW 03:43:37 20° WSW
GP-B 3.1 03:37:10 10° S 03:41:33 63° W 03:45:59 10° N
Cosmos 2278 4.4 03:38:16 10° NW 03:43:05 29° WSW 03:47:53 10° SSW
Cosmos 1733 3.8 03:40:09 10° N 03:43:51 59° ENE 03:47:33 10° SSE
SL-16 R/B 2.3 03:38:24 10° NW 03:43:55 52° WSW 03:49:23 10° S
IDEFIX/ARIANE 42P 4.4 03:42:25 10° NNW 03:44:57 14° NW 03:46:26 12° WNW
Cosmos 1461 2.8 03:42:22 19° SW 03:45:15 81° NW 03:49:33 10° NE
USA 305 2.8 03:44:58 21° W 03:47:36 84° N 03:51:44 10° E
FENGYUN 3A 4.5 03:43:31 10° N 03:48:12 31° WNW 03:51:35 16° WSW
Meteor 2-19 Rocket 4.4 03:42:19 10° NNW 03:48:31 79° W 03:54:40 10° S
USA 290 2.3 03:46:52 10° NNW 03:50:07 76° ENE 03:53:20 10° SSE
METEOR-M 4.3 03:45:27 10° N 03:50:38 51° WNW 03:55:47 10° SW
IRS-P3 4.2 03:48:05 10° N 03:53:20 56° WNW 03:58:31 10° SW
SJ 16-02 3.1 03:51:46 10° N 03:55:47 34° NE 03:59:47 10° ESE
Cosmos 1833 Rocket 3.9 03:54:43 15° W 03:58:13 26° NW 04:02:56 10° NNE
Cosmos 192 4.3 03:56:32 10° SSW 04:01:30 78° WNW 04:06:29 10° NNE
Spot 4 Rocket 4.0 03:58:23 10° NNE 04:03:33 84° WNW 04:08:41 10° SSW
YAOGAN 6 2.8 04:00:35 10° N 04:04:05 47° WNW 04:07:33 10° SW
Cosmos 2228 Rocket 3.0 03:59:50 10° SSW 04:04:17 74° WNW 04:08:44 10° N
Cosmos 2219 Rocket 2.7 03:59:07 10° NNW 04:04:46 64° NE 04:10:21 10° SE
Cosmos 1486 Rocket 4.3 03:59:52 10° NNW 04:05:14 77° ENE 04:10:31 10° SSE
Cosmos 1331 Rocket 4.0 04:01:47 10° SW 04:06:54 64° WNW 04:12:05 10° NNE
Cosmos 1726 2.5 04:05:06 10° N 04:08:44 65° ENE 04:12:19 10° SSE
Cosmos 1484 Rocket 3.3 04:05:26 10° N 04:09:11 40° WNW 04:12:53 10° SW
Lacrosse 4 Rocket 2.8 04:07:36 10° WNW 04:10:50 20° WSW 04:14:06 10° SSW
ARIANE 5 R/B 2.9 04:06:14 10° N 04:10:57 41° WNW 04:15:37 10° SW
Cosmos 1302 Rocket 4.2 04:05:49 10° SSW 04:11:05 79° ESE 04:16:25 10° NNE
SKYMED 3 4.5 04:06:58 10° SSE 04:11:08 90° ENE 04:15:18 10° NNW
Helios 1B rocket 3.5 04:08:15 10° N 04:11:39 26° WNW 04:15:03 10° WSW
Lacrosse 5 rocket 4.0 04:10:53 10° S 04:14:19 21° SE 04:17:42 10° E
Meteor 1-29 3.1 04:11:38 10° N 04:14:51 48° WNW 04:18:03 10° SW
DMSP B5D2-2 4.1 04:10:34 10° S 04:15:50 73° WSW 04:21:09 10° NNW
CZ-2C R/B 3.6 04:11:34 10° SW 04:15:51 25° W 04:20:15 10° NW
CZ-2C R/B 3.3 04:11:14 10° NNE 04:16:59 70° WNW 04:22:28 10° SSW
CENTAUR R/B 2.8 04:14:47 10° WSW 04:21:00 68° NW 04:28:38 10° NE
Cosmos 2333 Rocket 2.2 04:15:17 10° NW 04:21:01 80° WSW 04:26:41 10° SSE
CZ-4C R/B 4.1 04:18:38 10° SSW 04:22:35 35° W 04:26:38 10° NNW
Cosmos 1110 Rocket 4.3 04:18:19 10° SW 04:23:20 47° NW 04:28:21 10° NNE
Cosmos 2016 Rocket 4.4 04:17:47 10° SW 04:23:48 42° WNW 04:29:50 10° N
COSMO-SKYMED 1 2.6 04:20:39 10° S 04:24:56 59° WSW 04:29:16 10° NNW
Cosmos 1707 Rocket 3.5 04:21:10 10° SSW 04:25:30 74° WNW 04:29:52 10° N
Cosmos 2082 Rocket 3.1 04:20:50 10° WSW 04:25:51 32° NW 04:30:53 10° NNE
CZ-2C R/B 3.7 04:22:19 10° N 04:26:02 21° NW 04:29:39 10° WSW
Envisat 3.3 04:22:34 10° N 04:27:26 47° WNW 04:32:16 10° SW
Cosmos 2360 Rocket 2.4 04:22:28 10° NW 04:27:54 50° WSW 04:33:17 10° S
Cosmos 968 Rocket 4.1 04:24:54 10° NW 04:29:31 33° WSW 04:34:04 10° SSW
Cosmos 1452 Rocket 4.3 04:25:07 10° WSW 04:29:53 33° NW 04:34:42 10° NNE
Cosmos 2237 Rocket 3.8 04:24:45 10° NNW 04:29:55 35° NE 04:35:04 10° ESE
Meteor 1-12 Rocket 4.5 04:24:06 10° NNW 04:30:05 84° ENE 04:35:56 10° SSE
USA 276 4.0 04:27:39 10° SSW 04:30:08 23° SSE 04:32:37 10° ESE
Meteor 2-10 4.0 04:25:33 10° NNW 04:30:39 58° W 04:35:36 10° S
USA 307 2.8 04:27:14 10° W 04:31:23 89° N 04:35:31 10° E
ERBS 2.5 04:28:55 10° WNW 04:31:44 49° NNE 04:34:33 10° E
H-2A R/B 3.9 04:29:22 10° NNE 04:34:31 40° E 04:39:35 10° SSE
COSMOS 2487 3.0 04:32:19 10° S 04:35:05 49° ESE 04:37:52 10° NE
Orbus 7S? 4.5 04:34:00 10° W 04:37:55 67° N 04:47:07 10° ENE
Spot 1 4.3 04:33:09 10° S 04:37:58 62° WSW 04:42:32 10° NNW
H-2A R/B 3.2 04:35:10 10° N 04:38:34 37° WNW 04:41:58 10° SW
Cosmos 1607 4.1 04:33:29 10° NW 04:39:42 86° NE 04:45:57 10° SE
USA 306 2.8 04:36:29 10° W 04:40:36 84° S 04:44:42 10° ESE
Meteor 2-21 4.5 04:34:52 10° NNW 04:41:00 82° W 04:47:09 10° S
